Torna al catalogo

AAC-IO1

AttivoScienzaSSO
NORAD 68498·PAYLOAD·🇬🇧 United Kingdom

Lanciato Mar 30, 2026 da Vandenberg Space Force Base

Loading…

Prossimi Passaggi (prossime 24 ore)

TLE

AggiornatoSource: Space-Track

Epoca: Sep 14, 2026, 08:22 UTC

1 68498U 26067CL  26257.34882557  .00001182  00000-0  12235-3 0  9998
2 68498  97.7676 214.1065 0003763 107.2960 252.8671 14.91927467 25011

Traccia AAC-IO1 in tempo reale con AllMySat

Download on the App Store